Flag for U.S.A. Weather past 2 weeks in Angels Camp, California, U.S.A.

Now
84 °F

Sunny.


Feels Like: 83 °F
Forecast: 55 / 86 °F
Wind: 10 mph from Northwest

Location: Modesto City-County-Sham Field

Current Time: Sep 18, 2014 at 5:53:30 PM

Latest Report: Sep 18, 2014 at 4:53 PM


Visibility: 10 mi

Pressure: 29.77 "Hg

Humidity: 40%

Dew point: 57 °F

Location of Angels CampLocation

Historic Weather in Angels Camp — Graph

°F

Angels Camp temperature yesterday

Maximum temperature yesterday: 92 °F (at 3:53 PM)
Minimum temperature yesterday: 63 °F (at 5:53 AM)
Average temperature yesterday: 77 °F

Past Weeks' High & Low Weather Summary

 TemperatureHumidityPressure
High100 °F (Sep 12, 3:53 PM)90% (Sep 9, 6:53 AM)29.97 "Hg (Sep 9, 6:53 AM)
Low54 °F (Sep 9, 5:53 AM)12% (Sep 11, 4:53 PM)29.62 "Hg (Sep 3, 6:53 PM)
Average77 °F45%29.79 "Hg
* Reported Sep 3 4:53 PM — Sep 18 4:53 PM, Angels Camp, Weather by CustomWeather, © 2014

Note: Actual official high and low records may vary slightly from our data, if they occured in-between our weather recording intervals... More about our weather records

Advertising

Angels Camp weather history for previous 24 hours

 ConditionsComfort  
Time TempWeatherWind HumidityBarometerVisibility
4:53 PM
Sep 18
84 °FSunny.10 mph40%29.77 "Hg10 mi
3:53 PM84 °FPassing clouds.6 mph40%29.78 "Hg10 mi
2:53 PM85 °FSunny.6 mph39%29.79 "Hg10 mi
1:53 PM83 °FScattered clouds.5 mph41%29.81 "Hg10 mi
12:53 PM83 °FPassing clouds.7 mph41%29.82 "Hg10 mi
11:53 AM80 °FPassing clouds.5 mph47%29.83 "Hg10 mi
10:53 AM78 °FSunny.6 mph52%29.85 "Hg10 mi
9:53 AM75 °FPassing clouds.3 mph58%29.85 "Hg10 mi
8:53 AM72 °FScattered clouds.No wind64%29.84 "Hg10 mi
7:53 AM66 °FScattered clouds.No wind75%29.83 "Hg10 mi
6:53 AM66 °FPassing clouds.5 mph75%29.81 "Hg10 mi
5:53 AM67 °FClear.5 mph73%29.79 "Hg10 mi
4:53 AM67 °FClear.6 mph71%29.79 "Hg10 mi
3:53 AM68 °FClear.5 mph65%29.77 "Hg10 mi
2:53 AM70 °FClear.8 mph59%29.78 "Hg10 mi
1:53 AM70 °FClear.7 mph55%29.76 "Hg10 mi
12:53 AM71 °FClear.5 mph51%29.76 "Hg10 mi
11:53 PM
Sep 17
72 °FClear.5 mph49%29.75 "Hg10 mi
10:53 PM73 °FClear.7 mph48%29.74 "Hg10 mi
9:53 PM75 °FClear.7 mph45%29.73 "Hg10 mi
8:53 PM78 °FClear.10 mph37%29.72 "Hg10 mi
7:53 PM81 °FSunny.13 mph37%29.69 "Hg10 mi
6:53 PM88 °FSunny.7 mph27%29.67 "Hg10 mi
5:53 PM91 °FSunny.9 mph26%29.67 "Hg10 mi
Weather by CustomWeather, © 2014

See weather overviewHow to use our weather pages